User: anonymous
Location: Whispering Pines Observatory
(39.4020°N, 104.7430°W)
Time: 16:53:00
(UTC-06:00)
Language:

MOS 1 Rocket - Orbit

View from above orbital plane
View from above orbital plane
View from above satellite
View from above satellite

Ground track
Ground track

The orbit data is extracted from the following two-line orbital elements,

1 17528U 87018B   14109.20116995  .00000654  00000-0  15571-3 0  3468
2 17528 097.4683 185.1738 0152863 317.4759 093.4558 14.49915265432454
Epoch (UTC): 19 April 2014 04:49:41
Eccentricity: 0.0152863
inclination: 97.4683°
perigee height: 617 km
apogee height: 834 km
right ascension of ascending node: 185.1738°
argument of perigee: 317.4759°
revolutions per day: 14.49915265
mean anomaly at epoch: 93.4558°
orbit number at epoch: 43245

The dashed part of the orbit path shows where the satellite is in the earth's shadow,  

DLR